7 * 24
多渠道服务支持
STARLINK-1109是美国太空探索技术公司(SpaceX)星链(StarLink)低轨互联网星座中的一颗卫星,于2020年1月7日发射入轨,归属美国所有。作为星链早期组网批次卫星之一,它承担着为全球提供宽带互联网接入服务的任务,运行在近地轨道,通过星间链路与其他星链卫星协同工作,为偏远地区、海洋、空中等场景提供网络连接支持,助力星链星座逐步完成全球覆盖部署。
美国
(US)
| 数据来源 | 国际轨道数据 |
| 星历时间: | 2025-05-29T06:07:46+0800 轨道信息已过期289天 |
| 半长轴: | 6521.964km |
| 偏心率: | 0.0007194 |
| 轨道倾角: | 53.017° |
| 近地点辐角 | 267.812° |
| 升交点赤经 | 73.567° |
| 平近点角 | 136.512° |
| 近地点: | 139.137km |
| 远地点: | 148.521km |
| 周期: | 87.363分钟 |
| 每日圈数: | 16.482962 |